This demonstration page uses our WeatherBlox Daily Observations layout. Learn more.

Left ArrowRight Arrow

Hourly Observations for August 30, 2015

Temp ( °F °C ) Dew Point ( °F °C ) Humidity (%) Winds ( mph kmh ) Pressure ( in mb ) Visibility ( mi km ) Precip ( " mm )
12:51 am 00:51 Clear 75 23.9 59 15 58 58 SSE 5 7 29.87 1012 10 16 0.00 0.00
1:51 am 01:51 Clear 74 23.3 60 15.6 62 62 S 7 11 29.86 1011 10 16 0.00 0.00
2:51 am 02:51 Clear 76 24.4 56 13.3 50 50 E 8 13 29.85 1011 10 16 0.00 0.00
3:51 am 03:51 Clear 74 23.3 57 13.9 56 56 SE 7 11 29.85 1011 10 16 0.00 0.00
4:51 am 04:51 Clear 72 22.2 59 15 64 64 ESE 8 13 29.87 1011 10 16 0.00 0.00
5:51 am 05:51 Clear 72 22.2 56 13.3 57 57 E 8 13 29.89 1012 10 16 0.00 0.00
6:51 am 06:51 Sunny 75 23.9 55 12.8 50 50 ESE 8 13 29.91 1013 10 16 0.00 0.00
7:51 am 07:51 Sunny 80 26.7 54 12.2 41 41 E 15 24 29.91 1013 10 16 0.00 0.00
8:51 am 08:51 Sunny 81 27.2 59 15 47 47 SSE 9 15 29.91 1013 10 16 0.00 0.00
9:51 am 09:51 Sunny 85 29.4 57 13.9 39 39 SSE 8 13 29.91 1013 10 16 0.00 0.00
10:51 am 10:51 Sunny 88 31.1 56 13.3 34 34 VRB 7 11 29.90 1013 10 16 0.00 0.00
11:51 am 11:51 Sunny 90 32.2 55 12.8 31 31 VRB 6 9 29.88 1012 10 16 0.00 0.00
12:51 pm 12:51 Sunny 93 33.9 53 11.7 26 26 VRB 7 11 29.84 1011 10 16 0.00 0.00
1:51 pm 13:51 Sunny 95 35 54 12.2 25 25 SSE 9 15 29.79 1009 10 16 0.00 0.00
2:51 pm 14:51 Sunny 96 35.6 52 11.1 23 23 S 7 11 29.75 1008 10 16 0.00 0.00
3:51 pm 15:51 Sunny 97 36.1 53 11.7 23 23 WSW 7 11 29.73 1007 10 16 0.00 0.00
4:51 pm 16:51 Sunny 96 35.6 52 11.1 23 23 NNW 5 7 29.73 1007 10 16 0.00 0.00
5:51 pm 17:51 Mostly Sunny 93 33.9 54 12.2 27 27 SW 10 17 29.74 1007 10 16 0.00 0.00
6:51 pm 18:51 Clear 90 32.2 54 12.2 29 29 NNW 9 15 29.75 1007 10 16 0.00 0.00
7:51 pm 19:51 Clear 89 31.7 53 11.7 29 29 N 7 11 29.75 1008 10 16 0.00 0.00
8:51 pm 20:51 Clear 85 29.4 57 13.9 39 39 ENE 6 9 29.78 1009 10 16 0.00 0.00
9:51 pm 21:51 Clear 85 29.4 56 13.3 37 37 E 7 11 29.77 1008 10 16 0.00 0.00
10:51 pm 22:51 Clear 84 28.9 56 13.3 38 38 ESE 9 15 29.78 1008 10 16 0.00 0.00
11:51 pm 23:51 Clear 82 27.8 57 13.9 42 42 SE 8 13 29.78 1008 10 16 0.00 0.00

Powered by AerisWeather